Weather in Hafizabad

Pakistan     32°04′20″N   73°41′08″E
temp.,
°C
wind,
m/s
gust,
m/s
humid.,
%
clouds,
%
prec.,
mm/h
press.,
hPa
HPBL,
m
13 april, tue
tue1323:00+26nne34275 0.1 101159
02:00+23nne3332100 0.0 101132
05:00+23ne3333100 0.0 101132
08:00+29ene232276 0.0 1011273
11:00+37w221350 0.0 10112265
14:00+39wnw46105 0.0 10073943
17:00+38wnw561076 0.0 10054377
20:00+29n3523100 0.0 100762
14 april, wed
wed1423:00+26nw362741 0.0 100981
02:00+26nne41027100 0.0 1007202
05:00+23nne463552 0.0 100777
08:00+30ne4724100 0.0 1009459
11:00+37ene3313100 0.0 10092546
14:00+39wnw2510100 0.0 10054350
17:00+38nw441161 0.0 10042580
20:00+29ne451925 0.0 100556
15 april, thu
thu1523:00+24ne232812 0.0 100721
02:00+24n3331100 0.1 100736
05:00+24n41136100 0.1 1007199
08:00+28ne4628100 0.0 1009272
11:00+37ne641389 0.0 10082768
14:00+38ne2311100 0.0 10044718
17:00+35ne8815100 0.0 1002586
20:00+26nne71336100 0.0 1005323
16 april, fri
fri1623:00+23nne234036 0.0 100642
02:00+25ne41139100 0.0 1004275
05:00+23ene41340100 0.0 1004296
08:00+27ne4531100 0.0 1006495
11:00+34nne3317100 0.0 10051469
14:00+36ssw1413100 0.0 10033901
17:00+30nw9927100 0.0 1004858
20:00+24n3543100 0.0 1007161
17 april, sat
sat1723:00+22nw1155100 0.3 100822
02:00+22nne5957100 0.3 1007313
05:00+19ne2375100 0.3 100873
08:00+23ese465799 0.3 1010677
11:00+29ese43373 0.3 10111883
14:00+30e543396 0.1 10091464
17:00+27ene89434 0.2 1009619
20:00+22ne612550 0.0 1010353